Location: The Jewett Observatory
(46.7288°N, 117.1525°W)
Time: 04:28:59
(UTC-07:00)

Meteor 1-28 Rocket - Visible Passes

Search period start: 31 July 2014 00:00
Search period end: 10 August 2014 00:00
Orbit: 515 x 536 km, 97.3° (Epoch: 30 July)

Date Brightness Start Highest point End Pass type
(mag) Time Alt. Az. Time Alt. Az. Time Alt. Az.
31 Jul 3.2 21:18:29 10° NNE 21:22:19 81° ESE 21:26:10 10° S visible
31 Jul 6.6 22:55:27 10° NW 22:56:00 10° WNW 22:56:33 10° WNW visible
01 Aug 3.3 21:06:43 10° NNE 21:10:30 59° E 21:14:18 10° S visible
01 Aug 6.3 22:42:26 10° NNW 22:44:20 13° WNW 22:46:14 10° W visible
02 Aug 3.6 20:55:00 10° NNE 20:58:40 42° E 21:02:20 10° S visible
02 Aug 6.1 22:30:05 10° NNW 22:32:39 17° WNW 22:35:12 10° WSW visible
03 Aug 5.7 22:17:55 10° NNW 22:20:56 22° WNW 22:23:57 10° WSW visible
04 Aug 5.3 22:05:51 10° N 22:09:12 29° WNW 22:12:33 10° SW visible
05 Aug 4.7 21:53:52 10° N 21:57:28 38° WNW 22:01:03 10° SW visible
06 Aug 4.1 21:41:56 10° N 21:45:41 52° WNW 21:49:26 10° SSW visible
07 Aug 3.5 21:30:03 10° N 21:33:54 72° WNW 21:37:44 10° SSW visible
08 Aug 3.2 21:18:13 10° NNE 21:22:06 83° ESE 21:25:57 10° S visible
08 Aug 6.6 22:55:15 10° NW 22:55:45 10° WNW 22:56:14 10° WNW visible
09 Aug 3.3 21:06:26 10° NNE 21:10:16 60° E 21:14:05 10° S visible
09 Aug 6.3 22:42:11 10° NNW 22:44:04 13° WNW 22:45:58 10° W visible
